Date String (YYYY-MM-DD hh:mm:ss) UTC,Instrument flags,absolute air pressure of the measurement (hPa),sample flow rate (lpm),inlet stack bypass flow (lpm),air temperature of the measurement (°C),ambient temperature measured by the external sensor (°C),aerosol sample conditioner tube jacket temperature (°C),OPC LED temperature (°C),internal box temperature (°C),relative humidity of the measurement (%),span deviation,mass concentration of particles derived from Lorenz-Mie calculation of OPC scattering (μg/m³),mass concentration of particles derived from Lorenz-Mie calculation of OPC scattering (μg/m³),mass concentration of particles derived from Lorenz-Mie calculation of OPC scattering (μg/m³)
DateTimeUTC,F1_M11,P_M11,Q1_M11,Q2_M11,T1_M11,T2_M11,T3_M11,T4_M11,T5_M11,U1_M11,ZSPAN_M11,X0_M11,X2_M11,X1_M11
2023-10-26 04:00:00,SystemResetWarning,0823.9,5.00,000.00,029.0,027.7,000.0,037.4,030.7,18.0,-001.6,0017.82,0007.95,0006.60
2023-10-26 04:01:00,SystemResetWarning,0823.9,5.00,000.00,029.0,027.7,000.0,037.4,030.7,18.0,-001.6,0016.42,0008.00,0006.66
2023-10-26 04:02:00,SystemResetWarning,0823.9,5.00,000.00,029.0,027.8,000.0,037.4,030.7,18.0,-001.6,0016.46,0008.25,0006.81
2023-10-26 04:03:00,SystemResetWarning,0823.9,5.00,000.00,029.0,027.8,000.0,037.4,030.7,17.9,-001.0,0016.47,0008.66,0007.09
2023-10-26 04:04:00,SystemResetWarning,0823.9,5.00,000.00,029.0,027.8,000.0,037.4,030.7,17.9,-000.8,0017.33,0008.98,0007.34
2023-10-26 04:05:00,SystemResetWarning,0823.9,5.00,000.00,029.1,027.8,000.0,037.4,030.7,17.8,-000.8,0017.74,0009.13,0007.45
2023-10-26 04:06:00,SystemResetWarning,0823.9,5.01,000.00,029.1,027.8,000.0,037.5,030.8,17.8,-001.0,0017.57,0009.12,0007.43
2023-10-26 04:07:00,SystemResetWarning,0823.9,5.00,000.00,029.1,027.8,000.0,037.5,030.8,17.8,-001.2,0017.46,0009.17,0007.41
2023-10-26 04:08:00,SystemResetWarning,0823.9,5.00,000.00,029.1,027.8,000.0,037.5,030.8,17.7,-001.1,0017.39,0009.37,0007.55
2023-10-26 04:09:00,SystemResetWarning,0823.9,5.00,000.00,029.1,027.8,000.0,037.5,030.8,17.7,-001.3,0018.38,0009.70,0007.86
2023-10-26 04:10:00,SystemResetWarning,0823.9,5.00,000.00,029.1,027.8,000.0,037.5,030.8,17.8,-001.0,0018.88,0009.86,0008.03
2023-10-26 04:11:00,SystemResetWarning,0823.9,5.00,000.00,029.1,027.8,000.0,037.5,030.8,17.8,-001.0,0019.41,0009.81,0008.06
2023-10-26 04:12:00,SystemResetWarning,0824.0,5.00,000.00,029.1,027.8,000.0,037.5,030.8,17.8,-001.3,0020.16,0009.94,0008.21
2023-10-26 04:13:00,SystemResetWarning,0823.9,5.00,000.00,029.1,027.8,000.0,037.5,030.8,17.8,-001.5,0020.77,0010.39,0008.66
2023-10-26 04:14:00,SystemResetWarning,0823.9,5.00,000.00,029.1,027.9,000.0,037.6,030.8,17.9,-001.8,0021.95,0010.55,0008.89
2023-10-26 04:15:00,SystemResetWarning,0823.8,5.00,000.00,029.1,027.9,000.0,037.6,030.8,17.9,-001.8,0022.19,0010.95,0009.26
2023-10-26 04:16:00,SystemResetWarning,0823.8,5.01,000.00,029.2,027.9,000.0,037.6,030.8,17.9,-001.9,0023.72,0011.40,0009.66
2023-10-26 04:17:00,SystemResetWarning,0823.8,5.01,000.00,029.2,027.9,000.0,037.6,030.8,17.9,-002.1,0025.66,0012.00,0010.16
2023-10-26 04:18:00,SystemResetWarning,0823.7,5.00,000.00,029.2,027.9,000.0,037.6,030.8,18.0,-002.1,0026.49,0012.50,0010.63
2023-10-26 04:19:00,SystemResetWarning,0823.8,5.00,000.00,029.2,027.9,000.0,037.6,030.8,18.0,-002.4,0027.15,0013.04,0011.08
2023-10-26 04:20:00,SystemResetWarning,0823.8,4.99,000.00,029.2,027.9,000.0,037.6,030.8,18.0,-002.5,0027.01,0013.22,0011.25
2023-10-26 04:21:00,SystemResetWarning,0823.8,4.99,000.00,029.2,027.9,000.0,037.6,030.9,18.1,-002.6,0027.49,0013.43,0011.42
2023-10-26 04:22:00,SystemResetWarning,0823.8,5.00,000.00,029.2,027.9,000.0,037.6,030.9,18.5,-002.5,0027.83,0013.90,0011.85
2023-10-26 04:23:00,SystemResetWarning,0823.8,5.00,000.00,029.2,027.9,000.0,037.7,030.9,18.6,-002.5,0028.15,0014.42,0012.30
2023-10-26 04:24:00,SystemResetWarning,0823.8,5.00,000.00,029.2,027.9,000.0,037.7,030.9,18.6,-002.4,0028.86,0014.47,0012.28
2023-10-26 04:25:00,SystemResetWarning,0823.8,5.00,000.00,029.2,027.9,000.0,037.7,030.9,18.9,-002.4,0028.33,0014.26,0012.07
2023-10-26 04:26:00,SystemResetWarning,0823.8,5.00,000.00,029.2,028.0,000.0,037.7,030.9,18.8,-002.3,0028.31,0013.89,0011.74
2023-10-26 04:27:00,SystemResetWarning,0823.8,5.01,000.00,029.3,028.0,000.0,037.7,030.9,18.7,-002.4,0027.02,0013.35,0011.24
2023-10-26 04:28:00,SystemResetWarning,0823.8,5.01,000.00,029.3,028.0,000.0,037.7,030.9,18.6,-002.1,0025.63,0012.67,0010.63
2023-10-26 04:29:00,SystemResetWarning,0823.8,5.00,000.00,029.3,028.0,000.0,037.7,030.9,18.4,-002.0,0024.71,0012.00,0010.02
2023-10-26 04:30:00,SystemResetWarning,0823.8,5.00,000.00,029.3,028.0,000.0,037.7,030.9,18.4,-001.5,0024.17,0011.34,0009.44
2023-10-26 04:31:00,SystemResetWarning,0823.8,4.99,000.00,029.3,028.0,000.0,037.7,030.9,18.6,-001.0,0023.54,0010.80,0008.91
2023-10-26 04:32:00,SystemResetWarning,0823.7,4.99,000.00,029.3,028.0,000.0,037.7,030.9,19.0,-000.8,0022.05,0010.28,0008.46
2023-10-26 04:33:00,SystemResetWarning,0823.8,5.00,000.00,029.3,028.0,000.0,037.7,030.9,19.0,-000.5,0021.51,0009.65,0007.87
2023-10-26 04:34:00,SystemResetWarning,0823.8,5.00,000.00,029.3,028.0,000.0,037.7,030.9,18.8,0000.1,0020.92,0009.05,0007.28
2023-10-26 04:35:00,SystemResetWarning,0823.8,5.00,000.00,029.3,028.0,000.0,037.7,030.9,18.6,0001.0,0019.53,0008.46,0006.77
2023-10-26 04:36:00,SystemResetWarning,0823.7,5.00,000.00,029.3,028.0,000.0,037.7,030.9,18.8,0002.1,0018.83,0008.01,0006.36
2023-10-26 04:37:00,SystemResetWarning,0823.8,5.00,000.00,029.3,028.0,000.0,037.8,030.9,18.8,0000.2,0017.70,0007.64,0006.03
2023-10-26 04:38:00,SystemResetWarning,0823.7,5.00,000.00,029.3,028.0,000.0,037.8,030.9,18.6,0000.0,0016.66,0007.40,0005.83
2023-10-26 04:39:00,SystemResetWarning,0823.7,5.00,000.00,029.3,028.0,000.0,037.8,030.9,18.5,0000.0,0016.54,0007.33,0005.78
2023-10-26 04:40:00,SystemResetWarning,0823.7,4.99,000.00,029.3,028.0,000.0,037.8,030.9,18.7,0000.0,0016.29,0007.33,0005.75
2023-10-26 04:41:00,SystemResetWarning,0823.7,4.99,000.00,029.3,028.0,000.0,037.8,030.9,18.6,0000.0,0016.04,0007.29,0005.72
2023-10-26 04:42:00,SystemResetWarning,0823.7,5.00,000.00,029.3,028.0,000.0,037.8,030.9,18.8,0000.0,0015.73,0007.16,0005.67
2023-10-26 04:43:00,SystemResetWarning,0823.7,5.00,000.00,029.3,028.0,000.0,037.8,030.9,19.2,0000.0,0015.99,0007.11,0005.64
2023-10-26 04:44:00,SystemResetWarning,0823.6,5.00,000.00,029.4,028.0,000.0,037.8,031.0,19.4,0000.0,0015.96,0007.10,0005.62
2023-10-26 04:45:00,SystemResetWarning,0823.6,5.00,000.00,029.3,028.0,000.0,037.8,031.0,19.5,0000.0,0014.97,0007.09,0005.62
2023-10-26 04:46:00,SystemResetWarning,0823.6,5.01,000.00,029.4,028.0,000.0,037.8,031.0,19.3,0000.0,0014.84,0007.08,0005.60
2023-10-26 04:47:00,SystemResetWarning,0823.6,5.00,000.00,029.4,028.0,000.0,037.8,031.0,18.8,0000.0,0014.35,0007.07,0005.60
2023-10-26 04:48:00,SystemResetWarning,0823.6,5.00,000.00,029.4,028.0,000.0,037.8,031.0,18.5,0000.0,0014.01,0007.08,0005.61
2023-10-26 04:49:00,SystemResetWarning,0823.6,5.00,000.00,029.4,028.0,000.0,037.8,031.0,18.3,0000.0,0014.38,0007.13,0005.61
2023-10-26 04:50:00,SystemResetWarning,0823.6,4.99,000.00,029.4,028.0,000.0,037.8,031.0,18.3,0000.0,0013.93,0007.10,0005.61
2023-10-26 04:51:00,SystemResetWarning,0823.5,5.00,000.00,029.4,028.0,000.0,037.8,031.0,18.2,0000.0,0014.62,0007.02,0005.60
2023-10-26 04:52:00,SystemResetWarning,0823.5,5.00,000.00,029.4,028.0,000.0,037.8,031.0,18.3,0000.0,0014.45,0006.98,0005.60
2023-10-26 04:53:00,SystemResetWarning,0823.5,5.00,000.00,029.4,028.0,000.0,037.8,031.0,18.7,0000.0,0014.56,0006.98,0005.59
2023-10-26 04:54:00,SystemResetWarning,0823.5,5.00,000.00,029.4,028.0,000.0,037.9,031.0,17.9,0000.0,0015.28,0006.99,0005.59
2023-10-26 04:55:00,SystemResetWarning,0823.5,5.00,000.00,029.4,028.0,000.0,037.9,031.0,17.6,0000.0,0016.25,0007.02,0005.61
2023-10-26 04:56:00,SystemResetWarning,0823.5,5.00,000.00,029.4,028.0,000.0,037.9,031.0,17.5,0000.0,0016.68,0006.99,0005.59
2023-10-26 04:57:00,SystemResetWarning,0823.5,5.00,000.00,029.4,028.0,000.0,037.9,031.0,17.9,0000.0,0017.10,0007.01,0005.61
2023-10-26 04:58:00,SystemResetWarning,0823.5,5.00,000.00,029.4,028.0,000.0,037.9,031.0,18.0,0000.0,0017.62,0007.12,0005.64
2023-10-26 04:59:00,SystemResetWarning,0823.5,5.00,000.00,029.4,028.0,000.0,037.9,031.0,18.2,0000.0,0018.25,0007.16,0005.66
